Temp
82 81 77 72 72 71 71 72 72 72 72 72 72 72 73 73 74 74 74 73 72 72 71 71 71 71 70 70 70 71 80 85
84 84 81 80 79 71 70 71 71 71 72 71 71 71 72 72 72 73 73 72 72 71 70 70 70 69 69 69 69 71 83 77
87 86 84 82 82 78 71 71 71 70 72 70 70 83 80 78 77 71 72 71 71 70 70 70 69 68 68 68 68 84 81 77
88 87 85 84 87 81 80 81 81 81 81 79 82 84 83 83 77 70 71 70 70 69 69 69 69 82 79 70 81 83 77 74
89 87 86 85 87 86 84 85 84 83 83 81 82 83 81 81 77 79 78 71 77 74 74 78 81 85 85 83 84 83 81 79
89 89 86 85 89 88 87 87 86 85 83 82 80 80 75 78 81 83 82 82 81 80 81 81 82 82 83 83 82 84 81 78
89 89 86 85 85 88 86 82 81 81 79 81 76 78 77 82 84 86 86 86 84 82 83 82 80 80 81 81 80 82 82 84
90 88 86 85 85 84 81 81 82 79 77 80 76 75 75 78 79 83 85 86 85 83 82 81 80 80 79 80 79 80 79 80
90 85 80 78 77 83 83 80 79 78 80 79 79 77 77 76 77 78 84 85 82 82 80 80 80 81 78 78 79 78 79 78
88 85 79 75 75 76 81 83 84 80 78 79 77 79 79 76 76 74 80 82 82 80 79 78 78 79 78 78 77 78 78 77
88 83 78 75 75 76 75 74 78 80 77 76 76 78 79 76 77 76 76 79 80 79 78 78 77 77 78 77 76 77 76 78
79 78 76 74 73 73 73 72 73 74 73 75 72 72 74 76 77 72 71 72 77 77 76 77 78 77 78 76 75 76 76 76
81 80 80 76 73 69 69 68 71 71 72 72 71 71 71 70 73 70 68 69 70 74 74 73 75 77 74 72 72 73 73 74
80 81 81 82 81 75 75 74 74 74 72 71 70 69 68 67 67 68 69 68 67 69 73 73 74 76 71 69 63 66 69 71
78 79 79 79 80 80 74 75 73 73 72 70 72 71 70 68 66 65 66 66 66 67 70 71 71 74 73 69 63 61 64 69
76 77 78 77 77 79 76 78 77 79 79 80 78 74 70 69 69 67 65 65 65 66 69 69 71 70 71 74 74 73 63 59
73 75 76 75 74 74 74 74 75 77 77 74 74 73 69 70 68 67 64 64 63 63 65 65 66 67 69 66 69 72 71 66
71 72 74 73 72 72 71 70 71 72 73 72 74 74 72 70 70 66 65 63 62 61 61 62 63 65 66 66 67 67 66 66
71 72 72 73 72 71 71 70 70 69 71 72 72 72 72 70 65 63 63 62 61 60 60 59 60 61 62 63 65 67 68 67
70 70 70 71 71 70 71 70 71 72 72 71 70 70 71 71 69 67 67 66 62 60 58 58 58 58 60 61 62 64 66 68
MSLP
1009.70 1010.55 1011.37 1011.84 1012.26 1012.65 1013.01 1013.33 1013.64 1013.89 1014.28 1014.58 1014.86 1015.09 1015.25 1015.50 1015.69 1015.93 1016.13 1016.41 1016.69 1016.89 1017.06 1017.13 1017.21 1017.26 1017.29 1017.17 1016.93 1016.72 1016.31 1015.07
1009.42 1009.90 1010.71 1011.37 1012.00 1012.66 1013.11 1013.46 1013.69 1014.03 1014.45 1014.75 1015.12 1015.39 1015.54 1015.62 1015.76 1015.92 1016.22 1016.31 1016.67 1016.88 1017.00 1017.10 1017.17 1017.18 1017.25 1017.37 1017.12 1016.70 1016.00 1016.27
1009.26 1009.76 1010.41 1011.03 1011.59 1012.48 1013.24 1013.59 1013.94 1014.35 1014.63 1014.83 1015.06 1014.70 1015.14 1015.51 1015.39 1015.59 1016.05 1016.35 1016.68 1016.90 1017.05 1017.22 1017.16 1017.16 1017.13 1017.17 1017.15 1016.11 1015.93 1016.61
1008.76 1009.32 1009.84 1010.40 1010.72 1011.87 1012.72 1013.14 1013.54 1013.70 1013.96 1014.47 1014.37 1014.03 1014.28 1014.48 1015.13 1015.96 1016.25 1016.55 1016.85 1017.01 1017.08 1017.15 1017.18 1016.22 1016.65 1016.88 1016.28 1016.02 1016.42 1016.81
1008.02 1009.06 1009.56 1010.03 1010.13 1010.88 1011.74 1012.04 1012.53 1012.88 1013.05 1013.45 1013.78 1013.60 1014.19 1014.61 1015.24 1015.70 1016.02 1016.72 1016.55 1016.96 1017.17 1016.82 1016.13 1015.29 1015.37 1015.67 1015.45 1015.69 1016.10 1016.93
1007.85 1008.51 1009.29 1009.87 1009.74 1010.18 1010.61 1010.96 1011.57 1011.88 1012.34 1012.97 1013.27 1013.40 1013.92 1014.08 1014.02 1014.27 1014.83 1015.18 1015.52 1016.15 1016.10 1016.03 1015.68 1015.86 1015.57 1015.64 1015.74 1015.51 1016.08 1016.58
1007.38 1008.15 1009.10 1009.74 1010.00 1009.77 1010.18 1010.67 1011.10 1011.50 1011.97 1012.59 1013.29 1013.53 1013.95 1013.60 1013.17 1013.14 1013.40 1013.76 1014.39 1014.78 1014.96 1015.59 1016.17 1016.21 1016.05 1016.05 1016.16 1015.96 1015.82 1015.68
1007.05 1007.95 1008.71 1009.38 1009.70 1009.90 1010.07 1010.46 1010.71 1011.21 1011.79 1012.34 1012.87 1013.49 1013.50 1013.58 1013.52 1013.19 1013.24 1013.60 1013.94 1014.38 1014.68 1015.02 1015.28 1015.52 1015.96 1016.04 1016.14 1016.32 1016.69 1016.55
1006.58 1007.79 1009.06 1009.79 1010.41 1010.09 1010.09 1010.50 1010.81 1011.05 1011.32 1012.00 1012.55 1013.09 1013.23 1013.38 1013.48 1013.64 1013.22 1013.48 1013.92 1014.30 1014.86 1015.11 1015.06 1015.16 1015.64 1016.08 1016.20 1016.23 1016.45 1016.85
1006.69 1008.04 1009.10 1009.93 1010.32 1010.50 1010.18 1010.15 1010.28 1010.78 1011.11 1011.51 1012.08 1012.39 1012.72 1013.19 1013.50 1013.59 1013.39 1013.60 1013.94 1014.34 1014.60 1014.83 1014.85 1014.98 1015.22 1015.69 1016.14 1016.32 1016.37 1016.61
1006.47 1007.80 1008.80 1009.61 1010.12 1010.30 1010.57 1010.74 1010.57 1010.66 1011.14 1011.43 1011.70 1011.89 1012.13 1012.48 1012.78 1012.97 1013.30 1013.45 1013.88 1014.31 1014.49 1014.60 1014.70 1014.79 1015.05 1015.55 1015.80 1016.11 1016.46 1016.42
1007.85 1008.40 1009.12 1009.73 1010.16 1010.40 1010.59 1010.77 1010.82 1010.84 1011.02 1011.11 1011.47 1011.68 1011.70 1011.96 1012.36 1012.87 1013.03 1013.32 1013.38 1013.86 1014.03 1014.31 1014.38 1014.67 1014.70 1015.33 1015.81 1015.89 1016.14 1016.33
1007.85 1008.23 1008.72 1009.41 1009.86 1010.40 1010.73 1010.86 1010.93 1011.14 1011.29 1011.29 1011.52 1011.71 1011.91 1012.15 1012.46 1012.72 1012.81 1013.01 1013.03 1013.21 1013.66 1013.81 1013.87 1014.20 1014.73 1015.26 1015.91 1016.09 1016.09 1016.01
1008.35 1008.32 1008.55 1008.60 1008.81 1009.94 1010.27 1010.37 1010.69 1010.77 1011.11 1011.36 1011.56 1011.67 1011.82 1012.04 1012.37 1012.52 1012.66 1012.59 1012.60 1012.64 1012.74 1012.93 1013.23 1013.36 1013.61 1014.59 1015.22 1015.98 1016.31 1016.05
1008.96 1008.93 1009.11 1009.15 1008.87 1009.17 1010.23 1010.55 1010.61 1010.43 1010.52 1010.73 1010.87 1011.13 1011.38 1011.71 1011.84 1012.08 1012.10 1012.10 1011.95 1012.05 1012.19 1012.10 1012.06 1012.30 1012.76 1012.67 1013.56 1013.64 1014.57 1015.51
1009.48 1009.57 1009.59 1009.82 1009.74 1009.29 1009.54 1009.46 1009.33 1009.14 1009.08 1009.19 1009.60 1009.91 1010.57 1010.83 1011.19 1011.61 1011.73 1011.76 1011.66 1011.58 1011.49 1011.62 1011.74 1011.61 1012.20 1012.04 1011.50 1011.71 1012.51 1013.97
1009.83 1009.79 1009.88 1010.19 1010.35 1010.36 1010.25 1010.06 1009.87 1009.62 1009.55 1009.96 1010.06 1010.13 1010.36 1010.37 1010.63 1011.02 1011.31 1011.39 1011.38 1011.40 1011.25 1011.22 1011.10 1010.94 1010.89 1011.53 1011.62 1011.48 1011.65 1012.09
1009.93 1010.01 1010.08 1010.45 1010.68 1010.56 1010.56 1010.47 1010.30 1010.02 1009.75 1009.70 1009.53 1009.61 1009.97 1010.22 1010.42 1010.62 1010.78 1010.89 1010.92 1011.01 1011.03 1010.96 1010.91 1010.60 1010.22 1010.30 1010.44 1010.40 1010.67 1011.22
1009.73 1009.76 1009.79 1009.89 1010.13 1010.34 1010.45 1010.46 1010.37 1010.17 1009.86 1009.57 1009.48 1009.50 1009.72 1010.05 1010.48 1010.55 1010.71 1010.93 1011.00 1010.92 1010.63 1010.50 1010.37 1010.29 1010.14 1009.90 1009.95 1009.71 1010.00 1010.22
1009.72 1009.81 1009.80 1009.92 1010.09 1010.23 1010.38 1010.46 1010.24 1009.97 1009.72 1009.65 1009.69 1009.48 1009.38 1009.55 1009.69 1010.01 1010.06 1010.09 1010.52 1010.75 1010.86 1010.50 1010.25 1010.04 1009.74 1009.34 1009.10 1009.07 1008.93 1009.15
Wind_Speed
14 14 13 9 9 9 9 10 10 10 9 10 10 10 10 9 8 8 11 11 9 8 6 4 2 1 2 2 6 11 11 4
15 16 15 14 13 10 10 10 10 11 10 10 8 8 7 8 7 8 9 10 9 8 6 5 4 3 2 3 7 10 11 6
14 15 14 14 13 12 10 10 10 9 9 8 10 10 11 12 9 15 11 9 9 8 7 6 6 5 5 5 8 6 4 6
13 14 15 15 12 14 12 12 11 11 12 13 10 11 10 10 10 10 9 9 8 9 9 8 10 8 6 8 8 1 7 6
15 13 13 14 11 11 8 8 9 10 14 12 12 7 6 5 6 7 7 9 7 8 8 8 11 7 8 8 7 6 5 5
13 15 12 12 9 9 10 9 9 9 10 12 8 6 6 8 8 10 9 9 10 8 7 9 6 6 4 5 4 7 5 5
12 13 12 11 11 9 7 5 5 5 6 11 7 8 8 9 9 7 8 8 9 8 8 6 7 7 7 7 7 6 7 4
12 12 11 12 11 10 5 4 5 6 5 9 10 9 7 7 6 7 7 8 7 8 8 8 8 8 8 8 8 5 5 4
8 8 9 10 10 9 7 3 3 3 6 9 12 12 10 6 5 5 8 7 8 7 8 8 8 8 9 8 8 8 7 7
10 7 9 10 9 8 8 9 9 6 6 7 10 13 13 9 7 4 7 7 8 8 9 9 9 9 8 8 8 8 8 9
6 11 10 9 6 6 7 7 6 6 5 6 10 14 14 10 10 7 7 8 8 8 8 9 8 9 9 8 8 8 8 9
4 5 5 6 4 3 2 4 3 2 4 6 7 7 9 9 9 6 4 7 9 9 9 9 9 9 9 9 7 8 9 9
6 6 5 6 4 4 3 4 5 4 5 3 4 5 7 8 10 9 7 8 9 10 10 11 10 9 8 7 7 8 9 9
9 8 8 1 7 6 5 3 5 5 5 7 7 6 6 8 9 9 10 8 9 10 14 11 11 11 11 10 9 8 10 11
9 10 10 10 8 8 3 1 3 4 5 6 8 10 11 11 10 9 10 10 10 11 14 17 13 12 16 10 10 9 11 11
8 8 9 9 11 8 10 6 6 5 6 2 3 6 8 10 12 12 12 9 12 12 12 14 13 13 14 13 10 9 10 9
5 6 7 7 6 5 5 6 6 7 6 8 8 7 5 8 9 10 10 9 8 12 11 14 13 12 12 14 15 10 9 11
3 4 4 4 4 5 6 7 8 8 9 8 8 6 5 7 9 8 8 9 10 10 10 14 15 15 11 14 14 15 12 11
2 4 5 5 5 5 6 7 9 10 10 9 10 8 7 7 7 7 7 8 9 10 12 12 13 14 17 12 13 14 12 12
5 6 7 7 7 8 7 9 8 8 9 8 8 9 9 10 7 9 12 12 10 10 9 11 13 13 19 17 13 14 14 12
Wind_Direction
154 167 164 147 147 144 143 143 144 141 143 146 150 153 152 158 178 189 145 134 138 150 158 161 147 21 320 285 288 294 291 301
167 170 171 171 171 156 157 155 153 153 158 157 151 149 158 166 172 139 139 134 147 158 162 167 155 138 161 271 274 278 270 355
172 174 173 172 175 167 161 157 156 156 162 149 158 190 181 166 194 144 150 149 162 166 167 176 163 159 172 212 254 245 75 93
180 183 177 175 181 159 184 178 185 187 186 178 205 216 186 195 153 143 148 157 164 168 173 186 206 186 179 208 220 203 82 86
186 187 180 185 196 163 187 184 194 195 196 183 211 197 174 201 150 178 185 179 192 186 187 212 212 229 162 201 163 186 107 116
188 178 185 195 195 190 185 200 192 203 195 191 208 194 169 215 186 196 204 175 222 196 198 229 208 238 229 211 187 209 152 136
183 184 182 194 222 194 212 201 174 209 167 186 190 212 188 217 227 211 200 190 205 194 215 203 219 224 222 217 211 224 196 197
175 184 188 194 209 227 173 214 199 186 153 190 205 214 207 216 247 228 216 221 209 206 217 194 206 205 207 210 201 195 202 208
189 156 141 174 212 233 214 212 236 187 190 193 208 217 231 213 226 231 229 220 222 207 212 218 205 199 202 202 201 196 188 205
157 184 200 182 205 212 229 210 210 208 194 207 202 214 220 219 229 229 242 232 213 214 206 210 211 201 196 194 205 197 191 195
190 161 184 182 195 210 211 241 263 214 207 206 201 214 218 217 221 208 231 222 219 219 213 222 209 207 200 201 201 199 189 198
107 84 95 165 194 217 255 223 236 263 227 207 204 213 216 221 225 222 216 228 215 212 218 209 221 209 207 194 205 208 192 203
85 128 199 184 187 193 212 231 234 238 257 252 224 221 209 207 229 217 208 217 218 201 205 213 208 202 207 189 203 216 213 208
75 75 65 48 167 181 204 193 220 219 223 238 232 226 212 210 216 224 221 215 214 210 201 203 207 200 198 190 199 205 222 226
67 61 56 34 9 129 102 262 277 244 221 223 225 231 229 224 222 223 228 219 216 210 205 205 200 199 201 186 188 214 188 207
65 55 51 42 18 19 6 325 319 349 319 331 265 195 220 227 229 225 225 230 222 219 211 211 217 211 194 218 233 193 183 180
52 31 41 38 22 15 339 329 329 319 317 302 291 282 240 244 235 227 230 231 235 236 231 215 215 221 202 213 219 226 222 185
52 11 14 14 348 343 332 321 313 305 305 300 284 267 274 261 249 252 245 233 230 224 230 232 227 224 226 201 218 212 208 216
335 347 334 340 330 325 315 305 299 292 288 295 296 286 276 276 262 256 252 254 248 237 234 232 231 229 225 225 219 218 214 212
334 329 327 328 318 315 305 302 295 295 289 300 303 301 304 306 276 259 253 249 239 237 244 242 236 239 236 229 225 222 208 207